EW3925 Weather Reports


time (UTC)temp
C
wind
direction
speed
KPH
gust
KPH
rain 1hr
cm
rain 24hr
cm
rain mn
cm
humidity
%
barometer
mb
20260905234539 13 146 0.0 0.0 0.00 0.00 0.00 71 1016.8
20260905233040 13 146 0.0 0.0 0.00 0.00 0.00 71 1016.7
20260905231536 14 146 0.0 0.0 0.00 0.00 0.00 72 1016.7
20260905230032 14 146 0.0 0.0 0.00 0.00 0.00 71 1016.7
20260905224532 15 146 0.0 0.0 0.00 0.00 0.00 71 1016.6
20260905223028 15 146 0.0 0.0 0.00 0.00 0.00 70 1016.6
20260905221527 15 146 0.0 0.0 0.00 0.00 0.00 70 1016.5
20260905220056 15 146 0.0 0.0 0.00 0.00 0.00 71 1016.4
20260905214552 15 146 0.0 0.0 0.00 0.00 0.00 71 1016.3
20260905213048 16 146 0.0 0.0 0.00 0.00 0.00 71 1016.3
20260905211552 16 146 0.0 0.0 0.00 0.00 0.00 70 1016.2
20260905210047 16 146 0.0 0.0 0.00 0.00 0.00 69 1016.1
20260905204545 16 146 0.0 0.0 0.00 0.00 0.00 68 1016.1
20260905203040 17 146 0.0 16.1 0.00 0.00 0.00 67 1015.9
20260905201535 17 146 0.0 0.0 0.00 0.00 0.00 67 1015.8
20260905200038 17 146 1.6 30.6 0.00 0.00 0.00 69 1015.7
20260905194530 17 146 0.0 11.3 0.00 0.00 0.00 72 1015.5
20260905193025 18 146 0.0 0.0 0.00 0.00 0.00 69 1015.3
20260905191527 19 146 0.0 20.9 0.00 0.00 0.00 67 1015.3
20260905190022 19 146 0.0 11.3 0.00 0.00 0.00 64 1015.1
20260905184541 18 146 0.0 12.9 0.00 0.00 0.00 71 1014.9
20260905183035 18 146 0.0 6.4 0.00 0.00 0.00 75 1014.7
20260905181518 19 147 1.6 8.0 0.00 0.00 0.00 74 1014.5
20260905180016 19 147 0.0 4.8 0.00 0.00 0.00 73 1014.4
20260905174511 20 147 0.0 0.0 0.00 0.00 0.00 72 1014.0
20260905173011 20 147 0.0 6.4 0.00 0.00 0.00 72 1013.9
20260905171543 20 147 1.6 6.4 0.00 0.00 0.00 71 1013.5
20260905170039 20 148 1.6 8.0 0.00 0.00 0.00 71 1013.5
20260905164537 21 149 1.6 4.8 0.00 0.00 0.00 69 1013.3
20260905163036 21 150 1.6 8.0 0.00 0.00 0.00 68 1013.1
20260905161535 22 150 1.6 4.8 0.00 0.00 0.00 64 1013.0
20260905160035 22 150 4.8 11.3 0.00 0.00 0.00 63 1012.8
20260905154549 22 244 1.6 8.0 0.00 0.00 0.00 64 1013.0
20260905153033 22 261 0.0 3.2 0.00 0.00 0.00 62 1013.0
20260905151532 22 263 4.8 9.7 0.00 0.00 0.00 61 1013.0
20260905150032 22 303 0.0 9.7 0.00 0.00 0.00 62 1013.1
20260905144534 22 274 0.0 4.8 0.00 0.00 0.00 64 1013.0
20260905143029 22 277 4.8 14.5 0.00 0.00 0.00 65 1013.0
20260905141529 22 308 3.2 14.5 0.00 0.00 0.00 63 1013.1
20260905140026 22 274 9.7 17.7 0.00 0.00 0.00 64 1013.0
20260905134520 22 268 6.4 12.9 0.00 0.00 0.00 65 1013.0
20260905133035 22 279 3.2 16.1 0.00 0.00 0.00 65 1013.0
20260905131518 22 270 3.2 14.5 0.00 0.00 0.00 67 1013.1
20260905130018 22 247 4.8 17.7 0.00 0.00 0.00 66 1013.2
20260905124512 21 252 4.8 14.5 0.00 0.00 0.00 67 1013.3
20260905123011 21 251 8.0 20.9 0.00 0.00 0.00 68 1013.4
20260905121509 21 298 4.8 11.3 0.00 0.00 0.00 70 1013.3
20260905120009 21 247 4.8 16.1 0.00 0.00 0.00 69 1013.4
20260905114505 21 258 0.0 12.9 0.00 0.00 0.00 69 1013.7
20260905113002 20 256 1.6 11.3 0.00 0.00 0.00 70 1013.6
20260905111502 20 258 4.8 9.7 0.00 0.00 0.00 70 1013.7
20260905110059 19 259 1.6 9.7 0.00 0.00 0.00 70 1014.1
20260905104603 19 259 4.8 12.9 0.00 0.00 0.00 72 1013.6
20260905103055 19 259 3.2 12.9 0.00 0.00 0.00 75 1013.1
20260905101559 18 215 3.2 11.3 0.00 0.00 0.00 76 1013.0
20260905100051 19 153 3.2 17.7 0.00 0.00 0.00 75 1013.5
20260905094515 20 150 0.0 4.8 0.00 0.00 0.00 73 1013.7
20260905093015 20 150 1.6 12.9 0.00 0.00 0.00 70 1013.8
20260905091506 20 148 0.0 11.3 0.00 0.00 0.00 64 1013.7
20260905090007 21 144 1.6 11.3 0.00 0.00 0.00 60 1013.4
20260905084502 21 130 1.6 4.8 0.00 0.00 0.00 61 1013.0
20260905083005 20 130 0.0 24.1 0.00 0.00 0.00 65 1012.9
20260905081558 20 121 0.0 9.7 0.00 0.00 0.00 66 1013.1
20260905080113 20 121 0.0 33.8 0.00 0.00 0.00 64 1012.7
20260905074558 21 128 3.2 11.3 0.00 0.00 0.00 63 1012.5
20260905073101 21 136 9.7 19.3 0.00 0.00 0.00 58 1011.8
20260905071557 21 114 9.7 19.3 0.00 0.00 0.00 59 1011.9
20260905070055 21 92 11.3 24.1 0.00 0.00 0.00 58 1011.7
20260905064557 21 121 8.0 24.1 0.00 0.00 0.00 60 1011.3
20260905063055 21 87 9.7 20.9 0.00 0.00 0.00 62 1011.5
20260905061558 21 123 4.8 22.5 0.00 0.00 0.00 63 1011.3
20260905060051 20 125 11.3 24.1 0.00 0.00 0.00 64 1011.3
20260905054551 20 134 8.0 14.5 0.00 0.00 0.00 66 1011.0
20260905053050 20 128 8.0 17.7 0.00 0.00 0.00 67 1010.8
20260905051551 19 136 3.2 8.0 0.00 0.00 0.00 69 1010.8
20260905050048 19 136 6.4 14.5 0.00 0.00 0.00 69 1010.9
20260905044547 19 133 6.4 14.5 0.00 0.00 0.00 69 1011.0
20260905043055 19 117 4.8 19.3 0.00 0.00 0.00 69 1010.9
20260905041545 17 115 6.4 16.1 0.00 0.00 0.00 73 1010.5
20260905040016 17 132 3.2 14.5 0.00 0.00 0.00 74 1010.4
20260905034515 17 132 9.7 19.3 0.00 0.00 0.00 74 1010.7
20260905033018 17 113 6.4 16.1 0.00 0.00 0.00 72 1010.3
20260905031509 18 355 0.0 3.2 0.00 0.00 0.00 69 1009.4
20260905030010 19 325 0.0 9.7 0.00 0.00 0.00 67 1009.0
20260905024508 19 326 3.2 12.9 0.00 0.00 0.00 67 1008.9
20260905023007 18 298 6.4 16.1 0.00 0.00 0.00 70 1008.8
20260905021505 18 321 4.8 9.7 0.00 0.00 0.00 73 1009.0
20260905020005 17 342 4.8 8.0 0.00 0.00 0.00 73 1009.2
20260905014503 17 346 0.0 0.0 0.00 0.00 0.00 72 1009.0
20260905013036 17 346 0.0 0.0 0.00 0.00 0.00 72 1009.0
20260905011531 18 346 0.0 24.1 0.00 0.00 0.00 70 1008.9
20260905010027 18 346 0.0 0.0 0.00 0.00 0.00 70 1008.9
20260905004526 18 346 0.0 0.0 0.00 0.00 0.00 68 1008.9
20260905003023 18 346 0.0 8.0 0.00 0.00 0.00 67 1008.9
20260905001524 19 346 0.0 6.4 0.00 0.00 0.00 66 1009.0
20260905000101 20 346 3.2 9.7 0.00 0.00 0.00 65 1008.9